User: anonymous   Login
Location: St Andrew
(49.4460°N, 2.5750°W)
Time: 14:00:05
(UTC+00:00)
Language:

Iridium 66 - Orbit

View from above orbital plane
View from above orbital plane
View from above satellite
View from above satellite

Ground track
Ground track

The orbit data is extracted from the following two-line orbital elements,

1 25289U 98021E   17324.79949647 -.00000013 +00000-0 -11631-4 0  9990
2 25289 086.3959 158.3354 0001800 086.2260 273.9141 14.34221164027475
Epoch (UTC): 20 November 2017 19:11:16
Eccentricity: 0.0001800
inclination: 86.3959°
perigee height: 776 km
apogee height: 779 km
right ascension of ascending node: 158.3354°
argument of perigee: 86.2260°
revolutions per day: 14.34221164
mean anomaly at epoch: 273.9141°
orbit number at epoch: 2747

The dashed part of the orbit path shows where the satellite is in the earth's shadow,  

DLR